User: anonymous   Login
Location: Unspecified
(0.0000°N, 0.0000°E)
Time: 15:22:11
(UTC+00:00)
Language:

OPTUS D3 - Orbit

View from above orbital plane
View from above orbital plane
View from above satellite
View from above satellite

Ground track
Ground track

The orbit data is extracted from the following two-line orbital elements,

1 35756U 09044B   17295.81344495 -.00000156  00000-0  00000+0 0  9997
2 35756   0.0578  61.5586 0002427 157.7555 260.9831  1.00272866 29955
Epoch (UTC): 22 October 2017 19:31:21
Eccentricity: 0.0002427
inclination: 0.0578°
perigee height: 35775 km
apogee height: 35796 km
right ascension of ascending node: 61.5586°
argument of perigee: 157.7555°
revolutions per day: 1.00272866
mean anomaly at epoch: 260.9831°
orbit number at epoch: 2995

The dashed part of the orbit path shows where the satellite is in the earth's shadow,  

DLR